Hourly Data Report for November 03, 2019

CARBERRY CS
MANITOBA
Current Station Operator: ECCC - MSC

49°54'20.900" N
99°21'26.800" W
383.50 m
5010547
71170
WZE

Download Data

Hourly Data (November 2019)
Hourly Data Report for November 3, 2019
TIME
LST
Temp Definition
°C
Dew Point Definition
°C
Rel Hum Definition
%
Precip. Amount Definition
mm

Wind Dir Definition
10's deg

Wind Spd Definition
km/h
Visibility Definition
km
Stn Press Definition
kPa
Hmdx Definition


Wind Chill Definition


Weather Definition


00:00 -2.7 -3.1 97 0.0 15 3   96.63   -4 LegendNANA
01:00 -2.1 -2.6 97 0.0 16 5   96.58   -4 LegendNANA
02:00 -2.2 -2.5 97 0.0 18 5   96.55   -4 LegendNANA
03:00 -2.2 -2.4 99 0.0 19 5   96.51   -4 LegendNANA
04:00 -2.2 -2.5 98 0.0 20 6   96.47   -5 LegendNANA
05:00 -2.3 -2.6 98 0.0 22 6   96.45   -5 LegendNANA
06:00 -2.5 -2.5 100 0.0 25 6   96.42   -5 LegendNANA
07:00 -2.6 -2.6 100 0.0 25 9   96.36   -6 LegendNANA
08:00 -2.4 -2.5 99 0.0 24 9   96.38   -6 LegendNANA
09:00 -1.9 -2.4 96 0.0 26 12   96.43   -6 LegendNANA
10:00 -0.7 -2.1 90 0.0 27 12   96.44   -5 LegendNANA
11:00 0.6 -1.4 87 0.0 28 13   96.42     LegendNANA
12:00 2.0 -1.4 78 0.0 32 11   96.40     LegendNANA
13:00 2.3 -1.3 77 0.0 34 9   96.38     LegendNANA
14:00 1.9 -0.8 82 0.0 35 8   96.37     LegendNANA
15:00 1.3 -0.3 89 0.0 2 9   96.41     LegendNANA
16:00 0.1 0.1 100 0.0 1 12   96.49     LegendNANA
17:00 -0.1 -0.2 100 0.0 36 14   96.54   -4 LegendNANA
18:00 -0.7 -1.2 96 0.2 2 13   96.61   -5 LegendNANA
19:00 -1.0 -1.1 100 0.0 34 5   96.64   -3 LegendNANA
20:00 -1.4 -1.4 100 0.0 30 5   96.66   -3 LegendNANA
21:00 -3.0 -3.1 99 0.0 28 7   96.66   -6 LegendNANA
22:00 -4.4 -4.4 100 0.0 27 8   96.68   -8 LegendNANA
23:00 -3.1 -3.1 100 0.0 24 7   96.65   -6 LegendNANA

Notes on Data Quality.

Legend

  • E = Estimated
  • M = Missing
  • NA = Not Available*
  • [empty] = Indicates an unobserved value
Date modified: